Regional Weather Roundup
Issued by NWS Cleveland, OH

Home | Current Version | Previous Version | Graphics & Text | Print | Product List | Glossary On
Versions: 1 2 3 4 5 6 7 8 9 10 11 12 13 14 15 16 17 18 19 20 21 22 23 24 25 26 27 28 29 30 31 32 33 34 35 36 37 38 39 40 41 42 43 44 45 46 47 48 49 50
000
ASUS41 KCLE 230702
RWRCLE
OHIO REGIONAL WEATHER ROUNDUP
NATIONAL WEATHER SERVICE CLEVELAND, OH
300 AM EDT MON OCT 23 2017

NOTE: "FAIR" INDICATES FEW OR NO CLOUDS BELOW 12,000 FEET WITH NO
SIGNIFICANT WEATHER AND/OR OBSTRUCTIONS TO VISIBILITY.

OHZ001>008-015>018-024>027-034-035-043-044-230800-
   NORTHWEST OHIO

CITY           SKY/WX    TMP DP  RH WIND       PRES   REMARKS
DEFIANCE       CLOUDY    65  48  54 S6        29.97F
FINDLAY        CLOUDY    64  48  56 SE12      29.99F
TOLEDO EXPRESS CLOUDY    62  51  67 SE3       29.98F
TOLEDO EXEC    CLOUDY    62  50  64 S8        30.00S
LIMA           CLOUDY    65  49  56 S9        29.99F
$$

OHZ009>014-019>023-028>033-038-089-230800-
   NORTHEAST OHIO

CITY           SKY/WX    TMP DP  RH WIND       PRES   REMARKS
CLE-HOPKINS    CLOUDY    64  50  60 S9        30.07S
CLE-LAKEFRONT  CLOUDY    65  48  54 S12       30.04F
CUY CO. ARPT   NOT AVBL
LORAIN-ELYRIA  NOT AVBL
ASHTABULA      CLOUDY    64  50  60 S10       30.10S
AKRON-CANTON   MOCLDY    62  49  62 S9        30.09F
WOOSTER        MOCLDY    62  50  64 S8        30.09R
MANSFIELD      MOCLDY    63  49  60 SE13      30.05F
YOUNGSTOWN     CLOUDY    61  50  67 SE7       30.11S
$$

OHZ042-051>053-060>062-070>072-077>081-230800-
  SOUTHWEST OHIO

CITY           SKY/WX    TMP DP  RH WIND       PRES   REMARKS
CINC-COVINGTON CLOUDY    65  53  65 SE13      29.97F
CINC-LUNKEN    CLOUDY    59  56  89 CALM      29.99F
HAMILTON       CLOUDY    64  53  67 VRB5      29.98F
DAYTON         CLOUDY    65  51  60 SE14      29.99F
WRIGHT-PAT AFB CLOUDY    65  49  57 SE12      29.99F
DAYTON GENERAL CLOUDY    65  50  58 SE10      29.98F
WILMINGTON     CLOUDY    64  52  64 SE8       30.01F
$$

OHZ036-037-039>041-045>050-054>059-063>069-073>076-082>088-230800-
  CENTRAL AND SOUTHEAST OHIO

CITY           SKY/WX    TMP DP  RH WIND       PRES   REMARKS
COLUMBUS       CLOUDY    64  51  62 SE10      30.04F
OSU AIRPORT    CLOUDY    64  52  64 SE10      30.03F
BOLTON FIELD   CLOUDY    61  51  70 SE6       30.04F
RICKENBACK AFB CLOUDY    62  51  67 SE6       30.03F
NEWARK         CLOUDY    62  49  62 CALM      30.06F
MARION         MOCLDY    64  48  56 S10       30.04S
LANCASTER      PTCLDY    59  51  75 SE9       30.06F
ZANESVILLE     CLOUDY    62  50  64 S9        30.08F
NEW PHILLY     NOT AVBL
$$



USA.gov is the U.S. government's official web portal to all federal, state and local government web resources and services.